Flag for Romania Weather past 2 weeks in Sibiu, Romania

Now
70 °F

Sunny.


Feels Like: 70 °F
Forecast: 45 / 72 °F
Wind: 7 mph from Southeast

Location: Sibiu Airport

Current Time: Sep 18, 2014 at 7:03:06 PM

Latest Report: Sep 18, 2014 at 6:30 PM


Visibility: 10 mi

Pressure: 30.18 "Hg

Humidity: 35%

Dew point: 41 °F

Location of SibiuLocation

Historic Weather in Sibiu — Graph

°F

Sibiu temperature yesterday

Maximum temperature yesterday: 70 °F (at 4:00 PM)
Minimum temperature yesterday: 43 °F (at 6:30 AM)
Average temperature yesterday: 57 °F

Past Weeks' High & Low Weather Summary

 TemperatureHumidityPressure
High81 °F (Sep 11, 3:00 PM)100% (Sep 6, 7:30 AM)30.21 "Hg (Sep 6, 7:30 AM)
Low43 °F (Sep 17, 6:30 AM)14% (Sep 14, 12:30 PM)29.92 "Hg (Sep 3, 6:00 PM)
Average65 °F61%30.03 "Hg
* Reported Sep 3 6:00 PM — Sep 18 6:00 PM, Sibiu, Weather by CustomWeather, © 2014

Note: Actual official high and low records may vary slightly from our data, if they occured in-between our weather recording intervals... More about our weather records

Advertising

Sibiu weather history for previous 24 hours

 ConditionsComfort  
Time TempWeatherWind HumidityBarometerVisibility
6:00 PM
Sep 18
70 °FSunny.9 mph33%30.15 "Hg10 mi
4:30 PM72 °FPassing clouds.5 mph29%30.15 "HgN/A
4:00 PM72 °FPassing clouds.7 mph27%30.15 "HgN/A
3:30 PM70 °FPassing clouds.7 mph29%30.15 "HgN/A
3:00 PM70 °FPassing clouds.7 mph27%30.18 "HgN/A
2:30 PM70 °FMild.9 mph29%30.18 "HgN/A
1:30 PM68 °FPassing clouds.7 mph35%30.18 "HgN/A
1:00 PM68 °FSunny.9 mph38%30.18 "Hg10 mi
12:00 PM63 °FSunny.2 mph52%30.21 "Hg10 mi
11:00 AM59 °FSunny.2 mph63%30.21 "Hg10 mi
10:30 AM57 °FPassing clouds.5 mph67%30.21 "HgN/A
10:00 AM55 °FSunny.2 mph72%30.21 "Hg10 mi
9:30 AM54 °FSunny.5 mph77%30.21 "Hg10 mi
9:00 AM50 °FSunny.2 mph88%30.21 "Hg10 mi
8:30 AM48 °FSunny.No wind94%30.21 "Hg10 mi
8:00 AM43 °FFog.No wind100%30.21 "Hg6 mi
7:30 AM43 °FFog.No wind93%30.18 "Hg6 mi
7:00 AM45 °FFog.No wind100%30.18 "Hg6 mi
6:30 AM43 °FClear.No wind100%30.18 "Hg6 mi
6:00 AM45 °FClear.2 mph93%30.18 "Hg5 mi
5:30 AM45 °FClear.No wind93%30.18 "Hg10 mi
5:00 AM45 °FClear.2 mph93%30.18 "Hg10 mi
4:00 AM45 °FClear.2 mph93%30.18 "Hg10 mi
3:00 AM48 °FClear.2 mph87%30.18 "Hg10 mi
2:00 AM50 °FClear.2 mph94%30.18 "Hg10 mi
1:00 AM48 °FClear.5 mph94%30.15 "Hg10 mi
12:00 AM52 °FPassing clouds.5 mph88%30.15 "HgN/A
11:00 PM
Sep 17
52 °FPassing clouds.2 mph82%30.15 "HgN/A
10:00 PM55 °FPassing clouds.2 mph72%30.15 "HgN/A
9:00 PM57 °FClear.No wind67%30.15 "Hg10 mi
8:30 PM55 °FPassing clouds.5 mph77%30.12 "HgN/A
8:00 PM57 °FSunny.2 mph67%30.12 "Hg10 mi
7:30 PM61 °FSunny.5 mph59%30.12 "Hg10 mi
7:00 PM64 °FSunny.5 mph49%30.12 "Hg10 mi
Weather by CustomWeather, © 2014

See weather overviewHow to use our weather pages